Delta Virtual Airport Information Service

Charlotte Douglas International Airport

ICAO: KCLT Country: United States
Latitude: 35.214 Longitude: -80.9431
Latest Arrival : DAL1021 (KCHS-KCLT) Latest Departure : AAL1515 (1A) (KCLT-KDCA)


WX CaptureLIVE
Data provided by noaa.gov | Fetched at 11:07:20

METAR : KCLT 151552Z 01010KT 10SM FEW055 SCT120 29/16 A2989 RMK AO2 SLP111 T02940161

TAF : KCLT 151401Z 1514/1618 01009KT P6SM BKN120 FM151600 35010G16KT P6SM FEW060 SCT120 FM160100 01007KT P6SM FEW250 FM160900 35003KT P6SM SCT250


Runway Data for KCLT
Data provided by openaviationdata.com

Runway ID Mag Var Hdg Length Elevation Surface ILS Freq ILS Id ILS Slope
5 -7 55° 7501 ft 748 ft Asphalt 110.95 ICLT 3
18L -7 182° 8686 ft 748 ft Asphalt 110.35 IVKQ 3
18R -7 182° 10016 ft 748 ft Concrete 111.3 IPEP 3
23 -7 235° 7501 ft 748 ft Asphalt 109.5 IAPU 3
36L -7 10016 ft 748 ft Concrete 111.7 IDQG 3
36R -7 8686 ft 748 ft Asphalt 108.9 IBQC 3

Charlotte Douglas International Airport, United States
Use only for reference purposes



Not for navigational purposes.